Regional Weather Roundup
Issued by NWS Newport/Morehead, NC

Current Version | Previous Version | Graphics & Text | Print | Product List | Glossary Off
Versions: 1 2 3 4 5 6 7 8 9 10 11 12 13 14 15 16 17 18 19 20 21 22 23 24 25 26 27 28 29 30 31 32 33 34 35 36 37 38 39 40 41 42 43 44 45 46 47 48 49 50

000
ASUS42 KMHX 031813
RWRMHX
WEATHER ROUNDUP FOR EASTERN NORTH CAROLINA
NATIONAL WEATHER SERVICE NEWPORT/MOREHEAD CITY NC
200 PM EDT MON AUG 03 2015

NOTE: "FAIR" INDICATES FEW OR NO CLOUDS BELOW 12,000 FEET
WITH NO SIGNIFICANT WEATHER AND/OR OBSTRUCTIONS TO VISIBILITY

NCZ015>017-031-032-045>047-102-103-031900-
NORTH COAST

CITY           SKY/WX    TMP DP  RH WIND       PRES   REMARKS
EDENTON          N/A     85  74  68 S7        29.93F
ELIZABETH CITY MOSUNNY   85  75  72 S10       29.93S
KITTY HAWK     MOCLDY    83  72  68 SW9G16    29.94S
MANTEO         PTSUNNY   80  72  78 SW20      29.95S

$$

NCZ045>047-081-094-103-104-031900-
CENTRAL COAST

CITY           SKY/WX    TMP DP  RH WIND       PRES   REMARKS
FRISCO         LGT RAIN  75  72  90 SW14G20   30.00F
SWANQUARTER      N/A     77 N/A N/A S14G20    29.94R

$$

NCZ095-097-098-100-101-031900-
SOUTHERN COAST

CITY           SKY/WX    TMP DP  RH WIND       PRES   REMARKS
BEAUFORT       HVY RAIN  72  72 100 SW18      30.00S FOG
CEDAR ISLAND     N/A     72 N/A N/A S9        30.03S
JACKSONVILLE   LGT RAIN  79  73  82 S12       29.96S
PINEY ISLAND   LGT RAIN N/A N/A N/A S8        29.98F
WILMINGTON     TSTM      74  72  93 SE5       29.98R


$$

NCZ011>013-027>030-043-044-078>080-089-090>093-098-031900-
COASTAL PLAIN

CITY           SKY/WX    TMP DP  RH WIND       PRES   REMARKS
AHOSKIE        MOSUNNY   89  68  49 S8        29.91S
CLINTON        MOSUNNY   90  73  56 S7        29.93S
ELIZABETHTOWN  CLOUDY    84  72  66 SW8       29.94F
GOLDSBORO      MOSUNNY   92  71  50 S7        29.90F
GREENVILLE     MOSUNNY   90  72  55 SW8       29.94F
HAVELOCK       CLOUDY    73  70  90 S10       29.99R THUNDER
KENANSVILLE    MOSUNNY  N/A N/A N/A SE7       29.94F
KINSTON        MOSUNNY   90  73  58 S9        29.93F
NEW BERN       PTSUNNY   78  71  79 S10       29.98S
RICHLANDS      PTSUNNY   84  73  70 S12       29.95F
ROCKY MOUNT    SUNNY     92  67  43 MISG      29.91F
WASHINGTON     SUNNY     87  72  61 S6        29.93F
WHITEVILLE     CLOUDY    81  74  81 SW5       29.95S

$$

AMZ130-135-150-152-154-156-158-170-250-252-270-ANZ085-086-088-633-658-670-031900-
MARINE OBSERVATIONS

STATION/POSITION TIME  TEMP    WIND        PRES    WAVE   SWELL
                       AIR SEA DIR/SP/G            HT/PER HT/PER
                 (UTC) (F)     (DEG/KT/KT) (MB)    (FT/S) (FT/S)
CHESAPEAKE LIGHT 1800   80     180/ 20/ 21 1012.7
64 E VA BEACH    1750   78 81  220/ 17/ 19 1013.5    4/ 5   2/11
DUCK             1700   79 65  200/ 14/ 17 1012.9
2 E DUCK         1711      80                N/A     2/12   2/12
OREGON INLET     1700   77 82  210/ 18/ 22 1014.2
13E OREGON INLT  1800      80                N/A     4/ 7   2/12
HATTERAS CG      1700   73 81  170/  9/ 12 1015.6
DIAMOND BUOY     1750   74 83  180/  6/ 10 1016.4    3/ 7   3/ 7
CAPE LOOKOUT     1800   72     270/ 20/ 23 1016.1
BEAUFORT LAB     1700   73 81  300/  8/ 10 1015.3
30 SE NEW RVR IN NOT AVBL
27 SE WRIGHTSVLE 1700   76 82  220/ 19/ 21   N/A
5 SE WRIGHTSVLE  NOT AVBL
225 S CAPE HAT   1750   83 81  200/ 16/ 17 1017.5    5/ 6   2/11
41 SE CHARLESTON 1750   84 83  190/ 10/ 12 1014.0    4/ 6   3/ 6

$$


USA.gov is the U.S. government's official web portal to all federal, state and local government web resources and services.